Location: ?????????
(54.7630°N, 39.4991°E)
Time: 22:55:36
(UTC+00:00)

Cosmos 1741 Rocket - Pass Details

Date: 14 April 2026
Orbit: 756 x 778 km, 74.0° (Epoch: 13 May)

Event Time Altitude Azimuth Distance (km) Brightness Sun altitude
Rises 22:21:18 0° 332° (NNW) 3,262 7.9 -24.4°
Reaches altitude 10° 22:23:41 10° 332° (NNW) 2,334 7.1 -24.3°
Maximum altitude 22:28:59 84° 246° (WSW) 789 3.9 -24.0°
Enters shadow 22:29:52 63° 168° (SSE) 868 3.9 -24.0°
